This demonstration page uses our WeatherBlox Daily Observations layout. Learn more.

39.29038, -76.61219

Hourly Observations for July 31, 2015

Temp ( °F °C ) Dew Point ( °F °C ) Humidity (%) Winds ( mph kmh ) Pressure ( in mb ) Visibility ( mi km ) Precip ( " mm )
12:54 am 00:54 Mostly Clear 79 26 66 19 65 65 undefined N/A 29.91 1013 N/A 0 0
1:54 am 01:54 Mostly Clear 79 26 64 18 61 61 undefined N/A 29.88 1012 N/A 0 0
2:54 am 02:54 Mostly Cloudy 77 25 63 17 61 61 undefined N/A 29.91 1013 N/A 0 0
3:54 am 03:54 Mostly Clear 75 24 61 16 61 61 undefined N/A 29.91 1013 N/A 0 0
4:54 am 04:54 undefined 75 24 59 15 57 57 undefined N/A 29.91 1013 N/A 0 0
5:54 am 05:54 undefined 75 24 59 15 57 57 undefined N/A 29.91 1013 N/A 0 0
6:54 am 06:54 Mostly Sunny 75 24 59 15 57 57 undefined N/A 29.91 1013 N/A 0 0
7:54 am 07:54 Mostly Sunny 79 26 61 16 54 54 undefined N/A 29.94 1014 N/A 0 0
8:54 am 08:54 Sunny 81 27 61 16 51 51 undefined N/A 29.94 1014 N/A 0 0
9:54 am 09:54 undefined 82 28 59 15 45 45 undefined N/A 29.94 1014 N/A 0 0
10:54 am 10:54 undefined 84 29 59 15 43 43 undefined N/A 29.94 1014 N/A 0 0
11:54 am 11:54 Cloudy 86 30 57 14 38 38 undefined N/A 29.94 1014 N/A 0 0
12:54 pm 12:54 Mostly Sunny 88 31 55 13 33 33 undefined N/A 29.91 1013 N/A 0 0
1:54 pm 13:54 undefined 88 31 54 12 31 31 undefined N/A 29.91 1013 N/A 0 0
2:54 pm 14:54 Mostly Cloudy 88 31 57 14 35 35 undefined N/A 29.88 1012 N/A 0 0
3:54 pm 15:54 undefined 90 32 55 13 31 31 undefined N/A 29.88 1012 N/A 0 0
4:54 pm 16:54 undefined 90 32 55 13 31 31 undefined N/A 29.85 1011 N/A 0 0
5:54 pm 17:54 Mostly Cloudy 88 31 57 14 35 35 undefined N/A 29.85 1011 N/A 0 0
6:54 pm 18:54 undefined 88 31 55 13 33 33 undefined N/A 29.83 1010 N/A 0 0
7:54 pm 19:54 Mostly Sunny 86 30 55 13 35 35 undefined N/A 29.83 1010 N/A 0 0
8:54 pm 20:54 undefined 84 29 57 14 40 40 undefined N/A 29.85 1011 N/A 0 0
9:54 pm 21:54 Mostly Cloudy 82 28 61 16 48 48 undefined N/A 29.88 1012 N/A 0 0
10:54 pm 22:54 undefined 81 27 61 16 51 51 undefined N/A 29.88 1012 N/A 0 0
11:54 pm 23:54 Mostly Cloudy 79 26 61 16 54 54 undefined N/A 29.88 1012 N/A 0 0

Powered by AerisWeather